Location: Düngen
(52.0952°N, 10.0219°E)
Time: 15:45:38
(UTC+00:00)

Meteor 2-10 - Pass Details

Date: 11 March 2026
Orbit: 736 x 866 km, 81.2° (Epoch: 14 April)

Event Time Altitude Azimuth Distance (km) Brightness Sun altitude
Rises 18:48:29 0° 184° (S) 3,325 7.2 -14.7°
Reaches altitude 10° 18:50:54 10° 182° (S) 2,378 6.4 -15.1°
Maximum altitude 18:56:14 72° 99° (E) 826 3.9 -15.9°
Drops below altitude 10° 19:01:25 10° 17° (NNE) 2,312 6.5 -16.6°
Sets 19:03:44 0° 15° (NNE) 3,226 7.3 -17.0°
